This is the latest recevied weather packets stored in our database for station/object wb2ifs-13. If no packets are shown the sender has not sent any weather packets the latest 10 day(s).
| Time | Temp. | Humidity | Pressure | Rain* | Wind** | Luminosity | Snow |
|---|---|---|---|---|---|---|---|
| 1778195700 | 13.89° C | 70% | 1010.3 hPa | 0 mm | - | - | - |
| 1778194802 | 13.89° C | 69% | 1010.2 hPa | 0 mm | - | - | - |
| 1778193901 | 14.44° C | 68% | 1010 hPa | 0 mm | - | - | - |
| 1778193001 | 14.44° C | 66% | 1010 hPa | 0 mm | - | - | - |
| 1778192101 | 15° C | 64% | 1009.8 hPa | 0 mm | - | - | - |
| 1778191204 | 15.56° C | 60% | 1010 hPa | 0 mm | - | - | - |
| 1778190301 | 16.11° C | 57% | 1010 hPa | 0 mm | - | - | - |
| 1778189401 | 16.67° C | 58% | 1010.1 hPa | 0 mm | - | - | - |
| 1778188501 | 16.67° C | 56% | 1010 hPa | 0 mm | - | - | - |
| 1778187599 | 16.67° C | 59% | 1009.9 hPa | 0 mm | - | - | - |
| 1778186699 | 16.11° C | 59% | 1009.9 hPa | 0 mm | - | - | - |
| 1778185799 | 16.67° C | 62% | 1010 hPa | 0 mm | - | - | - |
| 1778184899 | 16.11° C | 66% | 1010.3 hPa | 0 mm | - | - | - |
| 1778184002 | 16.11° C | 61% | 1010.1 hPa | 0 mm | - | - | - |
| 1778183100 | 15.56° C | 61% | 1010.1 hPa | 0 mm | - | - | - |
| 1778182201 | 15.56° C | 59% | 1010.3 hPa | 0 mm | - | - | - |
| 1778181300 | 15° C | 61% | 1010.6 hPa | 0 mm | - | - | - |
| 1778180403 | 15.56° C | 64% | 1011.1 hPa | 0 mm | - | - | - |
| 1778179499 | 14.44° C | 65% | 1010.9 hPa | 0 mm | - | - | - |
| 1778178600 | 14.44° C | 63% | 1011.4 hPa | 0 mm | - | - | - |
| 1778177701 | 15° C | 63% | 1011.4 hPa | 0 mm | - | - | - |
| 1778176799 | 14.44° C | 65% | 1011.5 hPa | 0 mm | - | - | - |
| 1778175898 | 13.89° C | 62% | 1011.6 hPa | 0 mm | - | - | - |
| 1778175000 | 13.89° C | 65% | 1012.2 hPa | 0 mm | - | - | - |
| 1778174099 | 13.89° C | 66% | 1011.9 hPa | 0 mm | - | - | - |
* Rain latest hour (hover to see other rain measurements)
** Current wind speed in m/s (hover to see current wind gust speed)